Theta_e
341 347 354 352 352 350 350 350 350 350 347 344 342 339 337 336 335 337 337 338 338 338 338 337 338 337 337 337 339 340 342 345 349 353 351 349 348 348 347 350 348 345 345
344 347 353 352 350 349 349 350 351 349 345 343 340 338 338 335 334 336 336 336 336 336 336 336 336 336 335 335 335 335 336 337 340 344 349 352 352 350 351 352 352 346 345
345 346 347 352 350 348 350 347 348 347 344 341 338 337 337 334 334 335 334 333 333 333 334 333 333 333 333 333 333 333 333 334 336 340 345 347 348 353 353 353 353 352 349
345 347 344 352 349 349 348 346 347 345 341 339 337 336 333 332 334 333 332 332 333 334 334 334 334 334 334 333 332 331 331 333 335 338 336 340 349 355 355 354 353 352 351
343 346 348 351 349 350 346 345 345 342 341 337 336 335 331 333 333 334 334 335 335 335 336 336 336 337 337 336 336 335 334 333 334 334 329 331 347 355 357 356 352 352 352
341 343 349 352 349 347 345 343 342 342 340 338 335 332 331 332 332 333 333 335 335 335 337 336 335 335 335 335 336 336 338 336 334 326 324 328 343 356 357 356 352 354 354
341 341 346 352 349 346 343 341 338 336 339 339 335 333 333 332 331 332 333 334 335 336 336 336 335 334 334 334 336 338 340 338 330 323 322 328 344 352 354 355 354 352 354
341 342 345 350 348 345 342 339 336 337 338 337 335 333 332 332 333 334 334 334 334 334 336 335 335 333 333 334 335 338 339 336 329 328 329 339 348 351 353 353 353 353 351
343 344 345 345 345 345 342 337 337 339 338 338 336 335 335 336 337 337 336 336 335 335 334 332 333 334 334 334 334 339 339 338 331 332 340 344 350 351 352 353 353 350 349
341 343 344 344 340 338 335 338 338 339 338 337 336 336 336 337 338 338 341 338 336 334 330 332 333 333 334 336 338 341 338 339 333 335 344 349 355 353 351 352 349 348 347
341 343 344 345 342 341 334 334 337 338 338 337 336 338 341 335 336 337 341 340 336 332 332 333 334 335 335 336 339 342 339 330 336 342 345 353 352 351 350 348 345 342 340
341 341 342 342 343 340 336 334 335 334 334 335 336 338 337 338 333 336 336 340 336 334 334 335 337 338 336 329 328 337 332 330 341 341 344 351 350 347 344 341 338 337 336
341 342 343 346 349 345 337 338 340 341 341 342 342 343 344 338 332 332 332 331 334 335 330 333 331 332 330 330 329 329 329 333 340 338 344 348 346 342 339 338 337 336 336
339 342 345 344 347 354 345 343 347 347 344 340 342 343 344 340 339 336 334 335 336 334 333 335 331 331 329 331 329 327 326 337 338 338 341 346 344 341 339 338 337 336 335
340 343 347 349 348 351 350 350 349 348 344 342 342 342 344 342 339 339 336 334 334 335 335 332 332 330 331 330 330 328 329 336 337 337 338 345 344 343 339 338 337 335 334
344 349 349 349 353 350 350 355 348 349 350 347 345 340 342 343 343 341 338 338 337 335 334 332 330 331 332 330 330 329 330 335 337 337 337 340 345 343 342 339 338 337 336
342 355 354 355 351 350 350 350 350 348 342 347 347 343 342 344 344 343 340 337 339 336 333 335 332 332 332 329 330 331 330 331 333 337 335 336 339 344 343 343 341 339 339
347 353 360 351 353 354 350 350 345 344 348 349 349 341 341 343 345 345 339 339 338 336 337 335 332 332 330 330 331 332 330 331 330 331 334 335 335 335 342 344 344 342 340
349 355 360 363 352 352 358 351 349 349 349 353 350 345 341 340 339 341 340 340 338 337 336 332 334 332 330 329 329 330 330 332 332 329 330 332 333 333 334 342 343 343 341
348 355 359 361 363 357 354 355 348 347 351 353 347 346 343 340 340 342 340 340 337 336 335 337 334 335 332 329 326 327 330 330 333 331 328 328 330 331 333 335 336 336 342
348 352 359 360 365 358 352 347 345 343 348 348 349 345 343 341 341 346 342 339 339 336 336 335 334 334 331 333 328 328 327 330 330 331 332 331 330 329 329 333 333 332 335
346 350 355 358 360 358 352 352 348 345 342 341 347 346 344 343 342 344 343 342 339 336 335 334 335 332 332 331 324 325 320 324 327 328 329 330 329 331 330 330 331 332 332
342 347 350 355 357 357 357 355 353 349 348 345 343 346 342 342 342 343 344 342 342 337 334 337 335 333 328 327 331 324 319 316 322 331 327 329 330 330 330 331 331 332 332
342 345 348 351 355 354 357 353 353 344 339 338 345 344 342 341 341 342 343 343 340 339 335 336 335 334 334 328 331 330 332 330 318 317 326 328 330 331 332 329 328 332 332
346 343 347 351 354 355 353 355 351 345 341 345 345 346 342 341 344 340 342 341 338 340 338 338 336 335 334 331 328 327 325 327 329 321 315 319 327 329 330 331 328 326 329
344 344 346 348 352 353 354 352 350 347 348 343 344 340 343 341 342 343 342 344 343 342 340 336 337 336 336 334 333 332 327 323 322 322 318 319 319 322 324 324 327 326 326
Wind_Speed
15 14 14 11 9 7 7 6 6 8 8 7 7 7 7 7 7 7 8 8 8 8 7 7 8 7 7 7 8 8 7 6 6 9 12 11 12 12 12 15 10 5 2
17 14 12 10 8 7 8 8 9 8 7 6 6 6 7 7 6 6 6 7 6 7 7 7 6 6 5 5 5 5 4 3 2 0 7 11 14 19 19 16 18 11 6
16 12 12 11 9 8 8 7 7 7 6 6 5 5 6 5 6 6 6 6 6 6 6 6 7 6 5 4 3 3 2 2 2 4 7 7 9 16 16 12 15 20 16
14 13 12 11 10 9 8 7 8 6 5 4 4 4 5 5 6 6 6 6 6 7 7 7 6 6 5 5 4 4 3 3 5 8 7 11 11 17 16 15 14 16 16
14 14 13 13 9 9 8 7 7 6 5 4 3 3 3 4 5 6 6 7 6 6 6 6 6 6 5 4 4 3 4 6 8 9 9 11 11 15 16 14 11 14 15
17 15 14 13 11 9 8 6 5 6 6 5 4 3 2 3 3 4 5 5 6 7 7 7 6 6 7 7 6 5 5 7 9 9 9 10 14 17 15 13 7 12 9
19 15 14 13 12 10 8 7 6 5 6 6 5 4 4 3 1 1 2 3 5 7 7 8 7 6 7 8 8 8 9 9 7 9 11 4 13 17 15 12 12 10 10
18 17 14 14 13 11 9 7 7 7 7 7 6 5 4 4 4 4 3 2 4 5 7 7 7 6 6 7 8 8 7 7 8 11 12 10 15 15 15 12 11 10 10
18 17 14 12 11 11 9 8 7 8 7 6 5 5 7 8 9 8 6 4 3 4 4 5 7 8 8 8 8 9 8 8 7 7 9 8 15 16 16 14 13 12 11
11 17 16 14 12 10 10 11 9 8 8 7 7 9 10 12 12 11 8 7 5 2 4 5 7 8 9 10 10 11 10 10 9 6 8 8 17 18 16 15 14 13 12
10 9 15 17 16 15 14 11 10 10 10 10 9 13 10 8 10 10 5 10 6 7 8 9 11 10 10 11 14 15 12 4 3 8 7 16 16 20 19 15 14 13 12
11 9 9 8 13 13 12 13 10 10 8 8 9 8 7 4 3 4 7 10 11 11 11 11 14 14 11 7 6 13 6 5 7 9 7 18 17 17 17 14 13 12 11
12 8 9 8 6 6 13 9 6 6 6 4 3 1 3 4 3 4 4 5 5 10 6 9 10 7 3 3 7 5 6 2 7 6 11 17 19 18 15 13 12 11 10
11 12 12 12 9 2 4 4 4 2 4 6 5 5 2 2 2 2 2 2 4 4 3 5 2 4 4 2 6 6 6 6 6 6 10 17 16 16 16 13 11 10 9
4 12 13 11 11 7 5 3 2 3 3 7 6 5 0 4 1 2 3 4 1 3 2 3 1 3 5 5 5 2 4 5 10 6 6 15 16 16 16 14 12 10 8
6 2 1 12 12 10 7 3 3 4 3 2 4 7 4 3 1 3 3 1 2 1 3 1 4 3 4 3 2 4 5 2 6 9 7 8 13 15 15 15 14 11 9
6 2 4 11 15 11 10 7 3 4 7 5 3 8 4 4 2 3 3 1 1 3 4 2 1 4 4 3 0 2 3 4 3 7 8 7 8 13 15 15 14 13 12
6 3 4 8 16 12 11 7 6 6 4 4 4 6 7 5 3 3 5 3 4 2 4 1 3 4 2 1 3 3 4 4 5 2 3 7 7 7 10 13 12 12 12
4 3 4 2 14 13 7 6 6 7 4 2 3 4 9 7 8 5 5 4 3 3 2 2 2 1 3 3 4 4 1 2 3 5 6 4 6 7 7 14 15 14 14
5 3 3 2 4 10 8 5 6 7 3 3 4 4 8 5 6 6 4 3 2 4 2 3 3 4 4 4 6 1 4 4 3 3 2 1 4 6 6 10 8 8 16
4 4 3 3 4 5 5 6 6 6 4 3 3 6 6 5 6 6 3 5 4 3 2 1 2 4 4 3 3 4 2 3 3 2 3 4 6 5 5 4 7 5 6
5 3 2 4 5 4 4 4 5 4 4 4 4 4 5 6 5 4 6 4 6 1 4 3 2 3 4 1 1 3 1 2 2 4 4 4 4 2 5 4 4 2 3
8 6 5 4 6 5 6 3 2 3 3 1 3 2 4 4 4 6 5 4 1 2 2 4 3 4 3 4 6 1 2 2 3 0 3 4 4 2 2 3 5 6 6
11 10 7 6 5 5 5 4 4 2 3 5 3 4 5 8 6 6 6 5 4 3 4 5 4 3 1 5 2 2 0 3 1 3 1 5 6 5 6 5 6 6 6
12 10 7 7 5 3 5 4 2 4 5 4 1 5 2 5 6 7 6 6 6 4 4 4 1 3 2 3 4 1 1 2 1 2 4 6 2 6 7 10 6 5 6
8 8 8 10 7 6 4 4 4 6 3 4 1 5 3 4 6 6 5 5 6 5 4 4 5 5 5 4 3 5 2 2 4 4 4 6 5 5 2 2 4 4 4
Wind_Direction
102 115 117 121 120 116 116 112 123 121 109 98 86 78 73 67 60 54 53 41 34 31 31 40 49 50 40 36 42 47 47 52 87 147 189 197 176 184 179 200 205 259 151
112 111 125 129 129 119 107 104 115 119 106 92 81 75 70 63 60 60 47 34 27 34 28 20 31 42 47 44 42 46 59 53 37 346 177 191 199 195 201 244 193 210 185
105 126 141 137 134 125 113 102 113 115 109 99 86 74 60 58 64 57 39 28 25 32 37 30 21 24 24 24 27 32 16 319 275 255 241 227 180 182 177 178 188 188 179
138 139 133 138 134 124 120 116 116 116 107 96 81 63 57 70 63 56 55 53 46 40 37 37 33 28 21 16 5 349 314 280 268 268 260 224 187 174 163 164 174 167 174
110 99 123 135 136 128 123 118 122 122 123 115 97 63 54 67 67 65 57 51 44 38 30 22 15 6 2 356 341 300 287 277 269 267 255 262 166 161 153 146 159 164 178
119 118 130 135 134 136 133 132 135 141 137 137 134 116 107 85 65 54 47 36 26 21 15 13 12 358 345 339 332 312 277 257 265 258 241 258 130 152 146 144 200 154 155
118 125 138 144 142 144 143 140 143 151 154 153 144 147 149 150 176 13 1 7 8 2 1 1 9 357 341 330 322 314 290 254 254 252 246 212 124 140 136 133 123 137 138
133 134 142 149 150 150 148 147 150 153 157 152 154 163 180 205 223 229 245 292 326 340 343 343 336 335 321 309 304 303 303 266 261 251 260 103 125 131 129 129 131 125 119
132 135 139 149 152 155 153 155 155 157 158 163 164 192 215 229 230 230 232 247 281 305 338 324 313 310 305 293 283 286 286 271 263 289 108 106 129 132 130 126 122 125 122
157 145 156 149 161 168 162 162 163 164 171 181 199 222 231 239 241 240 233 227 239 270 269 261 264 274 283 282 273 271 276 282 259 259 90 112 121 139 121 123 127 127 122
157 168 158 168 165 183 152 162 167 183 193 202 214 237 234 238 223 219 173 167 210 224 239 243 252 255 261 266 269 270 269 254 312 114 105 106 108 117 123 130 132 129 123
169 191 188 173 166 152 150 150 181 186 196 202 211 210 218 183 59 169 171 182 204 222 231 245 255 254 248 246 246 254 260 232 116 115 126 123 122 120 123 132 134 130 125
210 170 175 155 124 150 133 169 188 177 181 169 133 345 342 337 195 212 170 185 213 222 226 221 246 247 324 343 198 226 248 142 119 131 137 132 125 132 131 138 139 133 129
182 191 183 162 142 139 133 174 133 182 157 164 156 176 252 253 208 282 61 289 200 133 185 236 302 70 267 285 291 318 287 109 121 120 139 133 134 137 141 148 148 149 147
222 184 185 159 146 153 122 177 132 226 156 126 157 167 256 302 40 278 49 301 24 345 353 357 1 51 299 225 283 268 304 114 114 126 143 147 147 149 153 160 165 169 171
356 294 146 145 137 144 150 245 144 241 186 163 176 149 157 298 110 313 211 11 277 318 342 36 49 335 277 320 109 309 333 113 134 135 142 159 168 160 166 174 179 184 193
348 52 140 145 149 154 159 193 185 192 221 167 189 137 171 170 170 301 270 243 232 44 301 315 240 204 259 197 25 238 271 313 128 164 162 161 184 182 180 185 190 196 205
8 349 170 169 146 159 163 169 193 220 242 161 166 155 164 171 246 231 275 204 76 331 261 266 251 298 257 291 213 232 213 176 222 127 208 166 170 187 198 197 199 209 212
51 341 102 185 151 156 162 159 203 236 203 177 178 184 170 187 191 199 288 109 84 290 290 351 354 58 317 264 272 209 142 291 180 193 202 204 157 175 174 202 205 213 213
86 59 148 183 134 148 159 170 188 242 204 205 180 209 156 182 214 171 238 132 125 271 267 67 37 341 322 297 309 199 168 210 231 231 122 121 219 196 177 178 193 216 220
127 143 164 184 146 146 154 179 226 214 183 188 225 202 164 176 221 163 230 160 166 258 101 35 322 254 264 206 310 312 199 232 306 301 184 196 241 186 208 166 190 206 196
133 138 165 181 157 181 200 192 217 208 196 180 186 208 174 168 210 182 186 277 183 67 147 196 251 309 295 193 229 286 293 8 248 228 259 225 237 317 157 138 186 210 172
151 164 181 191 163 193 250 191 86 38 49 44 280 186 167 189 227 215 172 201 110 123 244 181 212 258 307 312 225 152 336 49 341 253 259 284 262 228 286 228 213 217 230
167 163 170 176 175 192 264 266 150 204 235 213 244 206 190 185 205 236 190 186 189 193 230 185 209 227 290 290 325 291 249 128 131 321 304 234 228 231 223 226 229 210 213
164 153 166 158 166 229 191 274 306 196 288 250 21 301 180 163 189 214 227 178 182 188 262 258 164 211 248 283 287 308 257 29 140 200 272 284 260 232 233 218 205 199 216
116 144 150 152 161 173 216 212 273 313 287 307 286 320 213 194 190 203 212 188 189 196 231 244 227 217 216 262 303 301 269 182 232 215 220 261 267 284 173 134 180 199 213